星链-11107 [DTC] (STARLINK-11107 [DTC] )

导读

STARLINK-11107是美国太空探索技术公司SpaceX星链星座的一员,于2024年5月10日发射入轨。星链项目旨在构建全球卫星互联网星座,为全球偏远地区、灾害区域等提供高速宽带互联网接入服务,该卫星加入星座后,进一步扩充了星链网络的覆盖能力与服务容量。

Basic Information
目录编号:
59708
目录名称:
STARLINK-11107
国际标识:
2024-088A
轨道中心:
EARTH
卫星名称:
星链-11107 [DTC]
卫星全名:
星链-11107 [DTC] (STARLINK-11107 [DTC] )
卫星状态:
在轨 (已飞行854 天)
发射日期:
2024-05-10 UTC
国别 :
美国 (US)
星等 :
--
This satellite is enrolled in the Space Conjunction Data Service (SCDS) and the current flight risk assessment level is: No High Risk
Orbit Information
数据来源 国际轨道数据 AOE轨道数据
星历时间 2026-09-10T17:01:24+0800
1天前
查看轨道信息
2026-09-06T23:00:00+0800
5天前
查看轨道信息
半长轴 6737.873km 6737.782km
偏心率 0.000129 0.0001146
轨道倾角 53.160° 53.159°
近地点辐角 88.170° 113.620°
升交点赤经 135.528° 154.017°
平近点角 271.947° 277.780°
近地点 358.866km 358.872km
远地点 360.606km 360.418km
周期 91.737分钟 91.735分钟
每日圈数 15.697071 15.697389
Detailed Information
固有亮度:
5
最大亮度:
0.6
卫星平台:
Starlink v2.0 mini
覆盖范围:
全球
运营商:
太空探索技术公司
运营商所在国:
美国
制造商(研发单位):
太空探索技术公司
制造商所在国:
美国
使用方式:
暂无
Satellite Introduction
星链(Starlink)计划是由太空探索技术公司(SpaceX)提出的一个巨型低轨卫星互联网星座项目,计划在2019年至2024年间在太空搭建由约1.2万颗卫星组成的“星链”网络,其中1584颗将部署在地球上空550千米处的近地轨道,并从2020年开始工作。该卫星仍在工作。
2D Orbit Map
3D Orbit Map
Orbit Altitude Analysis Chart
Orbit Inclination Analysis Chart
Orbit Comprehensive Analysis Chart
View Comprehensive Chart
Miss Distance Evolution Trend with All Objects
Collision Probability Evolution Trend with All Objects